Regional Weather Roundup
Issued by NWS

Home | Current Version | Previous Version | Graphics & Text | Print | Product List | Glossary On
Versions: 1 2 3 4 5 6 7 8 9 10 11 12 13 14 15 16 17 18 19 20 21 22 23 24 25 26 27 28 29 30 31 32 33 34 35 36 37 38 39 40 41 42 43 44 45 46 47 48 49 50
000
ASUS43 KFSD 221410
RWRSD

WEATHER ROUNDUP FOR SOUTH DAKOTA
NATIONAL WEATHER SERVICE SIOUX FALLS SD
900 AM CDT TUE APR 22 2014

NOTE: "FAIR" INDICATES FEW OR NO CLOUDS BELOW 12,000 FEET WITH NO
SIGNIFICANT WEATHER AND/OR OBSTRUCTIONS TO VISIBILITY.


SDZ001>005-009-010-012>017-221500-
NORTHWEST AND NORTH CENTRAL SOUTH DAKOTA

CITY           SKY/WX    TMP DP  RH WIND       PRES   REMARKS
BUFFALO          N/A     46  32  58 E8        29.82F
FAITH            N/A     48  31  51 SE23      29.91F
MOBRIDGE       SUNNY     49  33  54 SE12      30.02F
$$

SDZ012>016-024>037-041>051-057-063-072>074-221500-
SOUTHWEST AND SOUTH CENTRAL SOUTH DAKOTA

CITY           SKY/WX    TMP DP  RH WIND       PRES   REMARKS
RAPID CTY ARPT MOSUNNY   47  33  58 SE9       29.88F
PIERRE         SUNNY     47  34  60 SE14      30.03F
CUSTER         SUNNY     49  29  46 CALM      29.94F
ELLSWORTH AFB  MOSUNNY   50  30  47 S10       29.88F
PHILIP         PTSUNNY   50  33  52 E10       29.95F
PINE RIDGE     MOSUNNY   55  32  41 S28G38    29.91F
SPEARFISH      FAIR      55  37  50 CALM      29.88F
WINNER         PTSUNNY   57  31  37 S15       30.05F
$$

SDZ004>011-016>023-039-040-221500-
NORTHEAST SOUTH DAKOTA

CITY           SKY/WX    TMP DP  RH WIND       PRES   REMARKS
ABERDEEN       SUNNY     44  32  62 S9        30.13S
WATERTOWN      SUNNY     43  34  70 S6        30.14R
SISSETON         N/A     48  37  65 CALM      30.13S
$$

SDZ017-020-022-023-036>040-048>070-221500-
SOUTHEAST SOUTH DAKOTA

CITY           SKY/WX    TMP DP  RH WIND       PRES   REMARKS
SIOUX FALLS    MOSUNNY   45  33  63 CALM      30.16S
HURON          SUNNY     46  32  58 S10       30.13S
CHAMBERLAIN      N/A     49  36  61 SE8       30.09S
MITCHELL       SUNNY     47  34  60 SE8       30.14F
YANKTON        SUNNY     45  34  65 E7        30.16F
$$

ABBREVIATIONS USED IN REMARKS
   TC - TEMPERATURE IN CELSIUS
  WCI - WIND CHILL INDEX
   HX - HEAT INDEX
  VSB - VISIBILITY




USA.gov is the U.S. government's official web portal to all federal, state and local government web resources and services.